Location: Unspecified
(44.4377°N, 88.0525°W)
Time: 02:21:41
(UTC-05:00)

CZ-3 Stage 3 - Visible Passes

Search period start: 18 October 2017 00:00
Search period end: 28 October 2017 00:00
Orbit: 421 x 34777 km, 31.0° (Epoch: 17 October)

Date Brightness Start Highest point End Pass type
(mag) Time Alt. Az. Time Alt. Az. Time Alt. Az.
20 Oct 4.4 05:27:11 16° SSW 05:30:33 30° SSE 05:45:40 10° ESE visible
23 Oct 4.3 05:18:21 19° SSW 05:21:16 30° SSE 05:36:00 10° ESE visible
26 Oct 4.3 05:09:31 22° SSW 05:11:58 30° SSE 05:26:20 10° ESE visible
